| time (UTC) | temp C | wind direction | speed KPH | gust KPH | rain 1hr cm | rain 24hr cm | rain mn cm | humidity % | barometer mb |
| 20260503191523 | 12 | 98 | 1.6 | 8.0 | 0.00 | 0.00 | 0.00 | 77 | 1024.6 |
| 20260503190021 | 12 | 85 | 1.6 | 6.4 | 0.00 | 0.00 | 0.00 | 78 | 1024.5 |
| 20260503184533 | 12 | 69 | 1.6 | 8.0 | 0.00 | 0.00 | 0.00 | 79 | 1024.6 |
| 20260503183021 | 12 | 74 | 1.6 | 3.2 | 0.00 | 0.00 | 0.00 | 80 | 1024.6 |
| 20260503181518 | 12 | 62 | 0.0 | 3.2 | 0.00 | 0.00 | 0.00 | 80 | 1024.7 |
| 20260503180024 | 12 | 65 | 0.0 | 3.2 | 0.00 | 0.00 | 0.00 | 81 | 1024.6 |
| 20260503174518 | 12 | 62 | 0.0 | 3.2 | 0.00 | 0.00 | 0.00 | 81 | 1024.7 |
| 20260503173016 | 12 | 80 | 0.0 | 3.2 | 0.00 | 0.00 | 0.00 | 81 | 1024.6 |
| 20260503171512 | 12 | 71 | 0.0 | 3.2 | 0.00 | 0.00 | 0.00 | 81 | 1024.7 |
| 20260503081558 | 20 | 106 | 4.8 | 22.5 | 0.00 | 0.00 | 0.00 | 54 | 1022.4 |
| 20260503071527 | 20 | 121 | 8.0 | 17.7 | 0.00 | 0.00 | 0.00 | 56 | 1022.6 |
| 20260503070124 | 20 | 163 | 6.4 | 14.5 | 0.00 | 0.00 | 0.00 | 57 | 1022.5 |
| 20260503054510 | 18 | 119 | 3.2 | 14.5 | 0.00 | 0.00 | 0.00 | 60 | 1022.9 |
| 20260503053006 | 18 | 110 | 3.2 | 9.7 | 0.00 | 0.00 | 0.00 | 61 | 1023.0 |
| 20260503051504 | 18 | 133 | 8.0 | 16.1 | 0.00 | 0.00 | 0.00 | 63 | 1023.1 |
| 20260503050100 | 18 | 137 | 8.0 | 16.1 | 0.00 | 0.00 | 0.00 | 63 | 1023.3 |
| 20260503044605 | 18 | 134 | 6.4 | 16.1 | 0.00 | 0.00 | 0.00 | 63 | 1023.5 |
| 20260503043059 | 18 | 79 | 1.6 | 12.9 | 0.00 | 0.00 | 0.00 | 63 | 1023.7 |
| 20260503041606 | 17 | 52 | 1.6 | 16.1 | 0.00 | 0.00 | 0.00 | 65 | 1024.1 |
| 20260503040022 | 17 | 135 | 1.6 | 12.9 | 0.00 | 0.00 | 0.00 | 65 | 1024.3 |
| 20260503034534 | 17 | 131 | 9.7 | 17.7 | 0.00 | 0.00 | 0.00 | 66 | 1024.4 |
| 20260503033011 | 17 | 86 | 3.2 | 12.9 | 0.00 | 0.00 | 0.00 | 67 | 1024.6 |
| 20260503031510 | 16 | 88 | 8.0 | 17.7 | 0.00 | 0.00 | 0.00 | 67 | 1024.6 |
| 20260503030005 | 16 | 108 | 6.4 | 19.3 | 0.00 | 0.00 | 0.00 | 68 | 1024.8 |
| 20260503024504 | 17 | 131 | 3.2 | 16.1 | 0.00 | 0.00 | 0.00 | 68 | 1025.0 |
| 20260503023028 | 16 | 113 | 4.8 | 16.1 | 0.00 | 0.00 | 0.00 | 69 | 1025.0 |
| 20260503021524 | 16 | 66 | 1.6 | 11.3 | 0.00 | 0.00 | 0.00 | 70 | 1025.1 |
| 20260503020049 | 16 | 134 | 4.8 | 12.9 | 0.00 | 0.00 | 0.00 | 71 | 1025.1 |
| 20260503014549 | 15 | 124 | 4.8 | 12.9 | 0.00 | 0.00 | 0.00 | 71 | 1025.1 |
| 20260503013037 | 15 | 148 | 3.2 | 11.3 | 0.00 | 0.00 | 0.00 | 74 | 1025.1 |
| 20260503011534 | 14 | 125 | 4.8 | 16.1 | 0.00 | 0.00 | 0.00 | 76 | 1025.2 |
| 20260503010027 | 13 | 119 | 6.4 | 16.1 | 0.00 | 0.00 | 0.00 | 77 | 1025.1 |
| 20260503004523 | 13 | 144 | 4.8 | 11.3 | 0.00 | 0.00 | 0.00 | 80 | 1025.1 |
| 20260503003015 | 12 | 84 | 1.6 | 9.7 | 0.00 | 0.00 | 0.00 | 83 | 1025.0 |
| 20260503001511 | 11 | 123 | 1.6 | 6.4 | 0.00 | 0.00 | 0.00 | 86 | 1024.8 |
| 20260503000006 | 10 | 42 | 1.6 | 6.4 | 0.00 | 0.00 | 0.00 | 86 | 1024.8 |
| 20260502234503 | 10 | 71 | 0.0 | 6.4 | 0.00 | 0.00 | 0.00 | 86 | 1024.6 |
| 20260502233102 | 10 | 65 | 0.0 | 6.4 | 0.00 | 0.00 | 0.00 | 85 | 1024.5 |
| 20260502231605 | 10 | 67 | 0.0 | 3.2 | 0.00 | 0.00 | 0.00 | 85 | 1024.4 |
| 20260502230052 | 9 | 68 | 0.0 | 3.2 | 0.00 | 0.00 | 0.00 | 85 | 1024.1 |
| 20260502224551 | 9 | 68 | 0.0 | 6.4 | 0.00 | 0.00 | 0.00 | 85 | 1023.9 |
| 20260502223047 | 9 | 50 | 0.0 | 3.2 | 0.00 | 0.00 | 0.00 | 85 | 1023.7 |
| 20260502221546 | 10 | 58 | 0.0 | 6.4 | 0.00 | 0.00 | 0.00 | 84 | 1023.8 |
| 20260502220045 | 10 | 56 | 0.0 | 3.2 | 0.00 | 0.00 | 0.00 | 84 | 1023.6 |
| 20260502214542 | 10 | 61 | 0.0 | 1.6 | 0.00 | 0.00 | 0.00 | 84 | 1023.6 |
| 20260502213038 | 10 | 59 | 0.0 | 6.4 | 0.00 | 0.00 | 0.00 | 84 | 1023.6 |
| 20260502211545 | 10 | 78 | 0.0 | 6.4 | 0.00 | 0.00 | 0.00 | 83 | 1023.3 |
| 20260502210034 | 10 | 28 | 0.0 | 6.4 | 0.00 | 0.00 | 0.00 | 83 | 1023.3 |
| 20260502204533 | 10 | 42 | 0.0 | 3.2 | 0.00 | 0.00 | 0.00 | 83 | 1023.2 |
| 20260502203027 | 10 | 74 | 0.0 | 6.4 | 0.00 | 0.00 | 0.00 | 83 | 1023.2 |
| 20260502201527 | 10 | 60 | 0.0 | 6.4 | 0.00 | 0.00 | 0.00 | 83 | 1023.1 |
| 20260502200023 | 10 | 76 | 0.0 | 3.2 | 0.00 | 0.00 | 0.00 | 82 | 1023.2 |
| 20260502194522 | 10 | 78 | 0.0 | 3.2 | 0.00 | 0.00 | 0.00 | 82 | 1023.2 |
| 20260502193020 | 10 | 63 | 0.0 | 3.2 | 0.00 | 0.00 | 0.00 | 82 | 1023.2 |